sat.trackr.live / text

‹ back to catalog

STARLINK-6350

NORAD 57226 · 2023-094J

PAYLOAD ACTIVE UNKNOWN

§ Identity

Operator
Country
US
Launch date
2023-07-07
Launch site
AFWTR
Launch vehicle
Mass (kg)
RCS (m²)

Purposes: comms

External: N2YO · Heavens-Above · Gunter

§ Orbital elements

Epoch: 2026-09-20T08:23:34.097280Z

Period
94.27 min
Inclination
43.0056°
Eccentricity
0.0001616
Mean motion
15.27575743 rev/d
Perigee alt
482.0 km
Apogee alt
484.2 km
Semi-major
6,861.2 km
B*
-8.9715e-6
RAAN
11.6011°
Arg perigee
279.0871°
Mean anomaly
80.9797°
Rev number
17,688

§ Raw data

STARLINK-63501 57226U 23094J   26263.34970020 -.00000509  00000+0 -89715-5 0  99942 57226  43.0056  11.6011 0001616 279.0871  80.9797 15.27575743176886

JSON: /api/v1/satellites/57226 · /tle

For live sub-satellite position, see the globe view (requires WebGL).

§ Visibility from observer

Set your observer location to see the next 7 days of passes ≥ 10°. The values pass through the URL so the page stays shareable.

No JS? Fill the form by hand. The geolocation button needs JavaScript.